Погода в Михайловском

Россия / Новосибирская область     54°35′08″N   80°57′37″E
темп.,
°C
ветер,
м/с
пор.,
м/с
влажн.,
%
обл.,
%
осадки,
мм/ч
давл.,
гПа
погр.,
м
4 марта, чт
чт401:00−15ююз7159394 0.1 1021361
04:00−12ююз81590100 0.0 1020481
07:00−11ююз81490100 0.1 1020474
10:00−10ююз81591100 0.0 1018476
13:00−7ююз91591100 0.1 1018552
16:00−5ююз91590100 0.1 1016661
19:00−4ююз91788100 0.1 1015694
22:00−5ююз91788100 0.0 1014634
5 марта, пт
пт501:00−5ююз81787100 0.0 1013579
04:00−6ю81587100 0.0 1011522
07:00−8ю81591100 0.0 1010493
10:00−7ююз81592100 0.1 1009592
13:00−2зюз101594100 0.5 10111140
16:00−4зюз9148267 0.2 1015892
19:00−6ююз9188474 0.2 1017664
22:00−6юз101892100 0.2 10161063
6 марта, сб
сб601:00−5юз101893100 1.5 1016948
04:00−5юз101790100 1.0 1015874
07:00−6ююз101790100 1.4 1016749
10:00−7юз101789100 0.2 1015786
13:00−5юз101690100 0.3 1014924
16:00−4юз101692100 0.7 10121026
19:00−3юз91593100 1.3 1012921
22:00−3юз81492100 0.2 1012873
7 марта, вс
вс701:00−3юз71395100 0.3 1014637
04:00−3зюз61295100 0.8 1014593
07:00−6з2495100 1.3 101791
10:00−6ююз2294100 0.0 1017112
13:00−2ююз5993100 0.3 1016555
16:00−1ю71293100 0.2 1014683
19:00−2ююз81590100 0.3 1013686
22:00−3юз71491100 0.0 1013666
8 марта, пн
пн801:00−3ююз81591100 0.0 1012525
04:00−4ююз71588100 0.0 1011424
07:00−5ююз61389100 0.0 1011365
10:00−5ююз71391100 0.0 1010379
13:00−3ююз71496100 1.1 1010555
16:00−1юз61189100 0.6 1010635
19:00−2юз61095100 1.5 1010581
22:00−2юз5997100 0.6 1012493